| time (UTC) | temp F | wind direction | speed MPH | gust MPH | rain 1hr in | rain 24hr in | rain mn in | humidity % | barometer mb |
| 20260831014557 | 87 | 134 | 2.0 | 2.0 | 0.00 | 0.00 | 0.00 | 55 | 1055.2 |
| 20260831014053 | 87 | 134 | 0.0 | 0.0 | 0.00 | 0.00 | 0.00 | 54 | 1055.1 |
| 20260831013549 | 88 | 134 | 0.0 | 1.0 | 0.00 | 0.00 | 0.00 | 53 | 1055.2 |
| 20260831013043 | 88 | 134 | 1.0 | 1.0 | 0.00 | 0.00 | 0.00 | 53 | 1055.0 |
| 20260831012543 | 88 | 134 | 1.0 | 2.0 | 0.00 | 0.00 | 0.00 | 53 | 1055.0 |
| 20260831012038 | 88 | 134 | 0.0 | 1.0 | 0.00 | 0.00 | 0.00 | 52 | 1055.0 |
| 20260831011538 | 89 | 133 | 1.0 | 1.0 | 0.00 | 0.00 | 0.00 | 52 | 1054.7 |
| 20260831011033 | 89 | 133 | 1.0 | 4.0 | 0.00 | 0.00 | 0.00 | 50 | 1054.9 |
| 20260831010528 | 90 | 139 | 2.0 | 3.0 | 0.00 | 0.00 | 0.00 | 50 | 1054.8 |
| 20260831010019 | 90 | 123 | 1.0 | 4.0 | 0.00 | 0.00 | 0.00 | 49 | 1055.0 |
| 20260831005519 | 90 | 142 | 2.0 | 2.0 | 0.00 | 0.00 | 0.00 | 49 | 1054.8 |
| 20260831005018 | 91 | 155 | 2.0 | 3.0 | 0.00 | 0.00 | 0.00 | 48 | 1054.8 |
| 20260831004515 | 91 | 154 | 2.0 | 2.0 | 0.00 | 0.00 | 0.00 | 48 | 1054.9 |
| 20260831004016 | 91 | 166 | 2.0 | 3.0 | 0.00 | 0.00 | 0.00 | 47 | 1054.9 |
| 20260831003512 | 92 | 152 | 2.0 | 3.0 | 0.00 | 0.00 | 0.00 | 46 | 1054.8 |
| 20260831003007 | 92 | 143 | 2.0 | 3.0 | 0.00 | 0.00 | 0.00 | 45 | 1054.7 |
| 20260831002506 | 92 | 139 | 2.0 | 4.0 | 0.00 | 0.00 | 0.00 | 45 | 1054.7 |
| 20260831002000 | 93 | 154 | 1.0 | 3.0 | 0.00 | 0.00 | 0.00 | 45 | 1054.8 |
| 20260831001456 | 93 | 242 | 2.0 | 4.0 | 0.00 | 0.00 | 0.00 | 45 | 1054.7 |
| 20260831000953 | 93 | 193 | 1.0 | 2.0 | 0.00 | 0.00 | 0.00 | 44 | 1054.8 |
| 20260831000448 | 93 | 142 | 2.0 | 8.0 | 0.00 | 0.00 | 0.00 | 44 | 1054.8 |
| 20260830235946 | 93 | 165 | 4.0 | 6.0 | 0.00 | 0.00 | 0.00 | 43 | 1054.7 |
| 20260830235442 | 94 | 127 | 3.0 | 9.0 | 0.00 | 0.00 | 0.00 | 43 | 1054.7 |
| 20260830234937 | 93 | 164 | 4.0 | 7.0 | 0.00 | 0.00 | 0.00 | 43 | 1054.9 |
| 20260830234432 | 93 | 117 | 3.0 | 8.0 | 0.00 | 0.00 | 0.00 | 43 | 1054.9 |
| 20260830233928 | 93 | 141 | 4.0 | 7.0 | 0.00 | 0.00 | 0.00 | 43 | 1054.7 |
| 20260830233423 | 93 | 120 | 4.0 | 8.0 | 0.00 | 0.00 | 0.00 | 44 | 1054.8 |
| 20260830232919 | 93 | 149 | 3.0 | 9.0 | 0.00 | 0.00 | 0.00 | 44 | 1055.0 |
| 20260830232415 | 93 | 150 | 6.0 | 11.0 | 0.00 | 0.00 | 0.00 | 44 | 1055.0 |
| 20260830231912 | 95 | 117 | 6.0 | 10.0 | 0.00 | 0.00 | 0.00 | 43 | 1054.9 |
| 20260830231406 | 94 | 174 | 6.0 | 9.0 | 0.00 | 0.00 | 0.00 | 43 | 1054.7 |
| 20260830230905 | 94 | 142 | 4.0 | 10.0 | 0.00 | 0.00 | 0.00 | 42 | 1054.9 |
| 20260830230401 | 93 | 128 | 11.0 | 14.0 | 0.00 | 0.00 | 0.00 | 44 | 1054.8 |
| 20260830225900 | 94 | 124 | 7.0 | 10.0 | 0.00 | 0.00 | 0.00 | 44 | 1054.9 |
| 20260830225355 | 94 | 130 | 10.0 | 11.0 | 0.00 | 0.00 | 0.00 | 44 | 1054.9 |
| 20260830224850 | 95 | 133 | 6.0 | 8.0 | 0.00 | 0.00 | 0.00 | 42 | 1055.0 |
| 20260830224344 | 94 | 136 | 2.0 | 6.0 | 0.00 | 0.00 | 0.00 | 43 | 1055.0 |
| 20260830223841 | 94 | 164 | 6.0 | 10.0 | 0.00 | 0.00 | 0.00 | 44 | 1055.0 |
| 20260830223337 | 94 | 176 | 9.0 | 11.0 | 0.00 | 0.00 | 0.00 | 45 | 1054.9 |
| 20260830222836 | 94 | 169 | 6.0 | 9.0 | 0.00 | 0.00 | 0.00 | 44 | 1054.9 |
| 20260830222332 | 94 | 115 | 5.0 | 7.0 | 0.00 | 0.00 | 0.00 | 45 | 1055.0 |
| 20260830221827 | 94 | 125 | 2.0 | 10.0 | 0.00 | 0.00 | 0.00 | 46 | 1055.2 |
| 20260830221324 | 94 | 133 | 6.0 | 8.0 | 0.00 | 0.00 | 0.00 | 45 | 1055.1 |
| 20260830220824 | 94 | 143 | 6.0 | 8.0 | 0.00 | 0.00 | 0.00 | 47 | 1055.3 |
| 20260830220323 | 94 | 155 | 5.0 | 8.0 | 0.00 | 0.00 | 0.00 | 47 | 1055.2 |
| 20260830215821 | 94 | 129 | 6.0 | 10.0 | 0.00 | 0.00 | 0.00 | 45 | 1055.2 |
| 20260830215316 | 93 | 144 | 2.0 | 9.0 | 0.00 | 0.00 | 0.00 | 47 | 1055.2 |
| 20260830214811 | 95 | 166 | 5.0 | 8.0 | 0.00 | 0.00 | 0.00 | 46 | 1055.3 |
| 20260830214306 | 95 | 167 | 6.0 | 10.0 | 0.00 | 0.00 | 0.00 | 46 | 1055.3 |
| 20260830213805 | 95 | 99 | 2.0 | 7.0 | 0.00 | 0.00 | 0.00 | 46 | 1055.4 |
| 20260830213300 | 94 | 121 | 1.0 | 8.0 | 0.00 | 0.00 | 0.00 | 46 | 1055.4 |
| 20260830212757 | 94 | 120 | 3.0 | 13.0 | 0.00 | 0.00 | 0.00 | 47 | 1055.6 |
| 20260830212253 | 95 | 134 | 6.0 | 10.0 | 0.00 | 0.00 | 0.00 | 48 | 1055.4 |
| 20260830211751 | 94 | 166 | 6.0 | 9.0 | 0.00 | 0.00 | 0.00 | 45 | 1055.6 |
| 20260830211250 | 94 | 81 | 4.0 | 10.0 | 0.00 | 0.00 | 0.00 | 49 | 1055.6 |
| 20260830210747 | 94 | 146 | 3.0 | 10.0 | 0.00 | 0.00 | 0.00 | 48 | 1055.6 |
| 20260830210246 | 93 | 136 | 4.0 | 9.0 | 0.00 | 0.00 | 0.00 | 47 | 1055.8 |
| 20260830205743 | 93 | 137 | 4.0 | 14.0 | 0.00 | 0.00 | 0.00 | 49 | 1055.8 |
| 20260830205238 | 94 | 144 | 6.0 | 16.0 | 0.00 | 0.00 | 0.00 | 49 | 1055.9 |
| 20260830204734 | 95 | 192 | 8.0 | 9.0 | 0.00 | 0.00 | 0.00 | 47 | 1056.0 |
| 20260830204232 | 95 | 10 | 1.0 | 11.0 | 0.00 | 0.00 | 0.00 | 48 | 1056.3 |
| 20260830203729 | 93 | 205 | 7.0 | 13.0 | 0.00 | 0.00 | 0.00 | 50 | 1056.1 |
| 20260830203224 | 94 | 118 | 6.0 | 13.0 | 0.00 | 0.00 | 0.00 | 49 | 1056.1 |
| 20260830202723 | 93 | 133 | 7.0 | 10.0 | 0.00 | 0.00 | 0.00 | 50 | 1056.4 |
| 20260830202219 | 92 | 34 | 3.0 | 6.0 | 0.00 | 0.00 | 0.00 | 50 | 1056.3 |
| 20260830201718 | 93 | 127 | 7.0 | 9.0 | 0.00 | 0.00 | 0.00 | 50 | 1056.6 |
| 20260830201214 | 93 | 197 | 7.0 | 9.0 | 0.00 | 0.00 | 0.00 | 50 | 1056.5 |
| 20260830200709 | 94 | 176 | 5.0 | 11.0 | 0.00 | 0.00 | 0.00 | 48 | 1056.6 |
| 20260830200209 | 92 | 174 | 3.0 | 11.0 | 0.00 | 0.00 | 0.00 | 50 | 1056.7 |
| 20260830195704 | 94 | 121 | 2.0 | 4.0 | 0.00 | 0.00 | 0.00 | 48 | 1056.6 |
| 20260830195202 | 92 | 144 | 7.0 | 18.0 | 0.00 | 0.00 | 0.00 | 51 | 1056.9 |
| 20260830194701 | 92 | 129 | 4.0 | 15.0 | 0.00 | 0.00 | 0.00 | 51 | 1056.7 |
| 20260830194201 | 93 | 127 | 2.0 | 7.0 | 0.00 | 0.00 | 0.00 | 51 | 1056.9 |
| 20260830193656 | 93 | 159 | 9.0 | 11.0 | 0.00 | 0.00 | 0.00 | 49 | 1057.2 |
| 20260830193156 | 94 | 196 | 4.0 | 9.0 | 0.00 | 0.00 | 0.00 | 49 | 1057.2 |
| 20260830192651 | 93 | 122 | 8.0 | 13.0 | 0.00 | 0.00 | 0.00 | 51 | 1057.2 |
| 20260830192146 | 92 | 142 | 4.0 | 11.0 | 0.00 | 0.00 | 0.00 | 52 | 1057.3 |
| 20260830191643 | 93 | 158 | 4.0 | 7.0 | 0.00 | 0.00 | 0.00 | 50 | 1057.4 |
| 20260830191137 | 92 | 138 | 9.0 | 10.0 | 0.00 | 0.00 | 0.00 | 51 | 1057.4 |
| 20260830190632 | 93 | 116 | 5.0 | 11.0 | 0.00 | 0.00 | 0.00 | 51 | 1057.6 |
| 20260830190128 | 92 | 182 | 4.0 | 6.0 | 0.00 | 0.00 | 0.00 | 52 | 1057.6 |
| 20260830185626 | 91 | 129 | 8.0 | 13.0 | 0.00 | 0.00 | 0.00 | 55 | 1057.7 |
| 20260830185122 | 93 | 140 | 11.0 | 15.0 | 0.00 | 0.00 | 0.00 | 51 | 1057.9 |
| 20260830184615 | 93 | 147 | 6.0 | 11.0 | 0.00 | 0.00 | 0.00 | 52 | 1058.0 |
| 20260830184109 | 93 | 174 | 4.0 | 11.0 | 0.00 | 0.00 | 0.00 | 51 | 1058.0 |
| 20260830183604 | 91 | 129 | 5.0 | 15.0 | 0.00 | 0.00 | 0.00 | 54 | 1058.2 |
| 20260830183100 | 91 | 161 | 4.0 | 7.0 | 0.00 | 0.00 | 0.00 | 54 | 1058.3 |
| 20260830182555 | 91 | 198 | 4.0 | 7.0 | 0.00 | 0.00 | 0.00 | 53 | 1058.1 |
| 20260830182051 | 91 | 182 | 6.0 | 9.0 | 0.00 | 0.00 | 0.00 | 52 | 1058.2 |
| 20260830181548 | 90 | 171 | 6.0 | 13.0 | 0.00 | 0.00 | 0.00 | 55 | 1058.4 |
| 20260830181047 | 91 | 174 | 6.0 | 14.0 | 0.00 | 0.00 | 0.00 | 55 | 1058.5 |
| 20260830180546 | 91 | 130 | 7.0 | 9.0 | 0.00 | 0.00 | 0.00 | 53 | 1058.5 |
| 20260830180046 | 91 | 127 | 9.0 | 10.0 | 0.00 | 0.00 | 0.00 | 54 | 1058.5 |
| 20260830175544 | 92 | 141 | 12.0 | 13.0 | 0.00 | 0.00 | 0.00 | 54 | 1058.7 |
| 20260830175040 | 92 | 214 | 3.0 | 8.0 | 0.00 | 0.00 | 0.00 | 53 | 1058.8 |
| 20260830174536 | 90 | 172 | 9.0 | 14.0 | 0.00 | 0.00 | 0.00 | 56 | 1058.9 |
| 20260830174031 | 91 | 176 | 7.0 | 10.0 | 0.00 | 0.00 | 0.00 | 55 | 1058.9 |
| 20260830173527 | 90 | 220 | 4.0 | 8.0 | 0.00 | 0.00 | 0.00 | 56 | 1058.9 |
| 20260830173021 | 89 | 106 | 3.0 | 4.0 | 0.00 | 0.00 | 0.00 | 57 | 1059.1 |
| 20260830172518 | 90 | 140 | 8.0 | 11.0 | 0.00 | 0.00 | 0.00 | 56 | 1059.1 |
| 20260830172014 | 90 | 188 | 4.0 | 4.0 | 0.00 | 0.00 | 0.00 | 55 | 1059.3 |
| 20260830171509 | 90 | 150 | 5.0 | 7.0 | 0.00 | 0.00 | 0.00 | 57 | 1059.3 |
| 20260830171009 | 90 | 144 | 5.0 | 9.0 | 0.00 | 0.00 | 0.00 | 57 | 1059.4 |
| 20260830170509 | 89 | 131 | 5.0 | 11.0 | 0.00 | 0.00 | 0.00 | 59 | 1059.2 |
| 20260830170008 | 89 | 101 | 8.0 | 10.0 | 0.00 | 0.00 | 0.00 | 60 | 1059.3 |
| 20260830165504 | 91 | 175 | 4.0 | 7.0 | 0.00 | 0.00 | 0.00 | 55 | 1059.4 |
| 20260830164959 | 88 | 205 | 3.0 | 11.0 | 0.00 | 0.00 | 0.00 | 60 | 1059.5 |
| 20260830164455 | 88 | 118 | 9.0 | 14.0 | 0.00 | 0.00 | 0.00 | 61 | 1059.4 |
| 20260830163951 | 89 | 188 | 6.0 | 9.0 | 0.00 | 0.00 | 0.00 | 60 | 1059.4 |
| 20260830163448 | 88 | 241 | 2.0 | 4.0 | 0.00 | 0.00 | 0.00 | 62 | 1059.7 |
| 20260830162947 | 88 | 194 | 4.0 | 10.0 | 0.00 | 0.00 | 0.00 | 63 | 1059.6 |
| 20260830162443 | 88 | 224 | 4.0 | 6.0 | 0.00 | 0.00 | 0.00 | 61 | 1059.5 |
| 20260830161943 | 88 | 211 | 5.0 | 7.0 | 0.00 | 0.00 | 0.00 | 62 | 1059.5 |
| 20260830161437 | 87 | 184 | 6.0 | 9.0 | 0.00 | 0.00 | 0.00 | 63 | 1059.5 |
| 20260830160933 | 87 | 274 | 1.0 | 7.0 | 0.00 | 0.00 | 0.00 | 65 | 1059.4 |
| 20260830160429 | 86 | 211 | 2.0 | 6.0 | 0.00 | 0.00 | 0.00 | 69 | 1059.6 |
| 20260830155923 | 86 | 346 | 3.0 | 6.0 | 0.00 | 0.00 | 0.00 | 67 | 1059.5 |
| 20260830155420 | 85 | 162 | 4.0 | 8.0 | 0.00 | 0.00 | 0.00 | 69 | 1059.5 |
| 20260830154914 | 84 | 239 | 7.0 | 9.0 | 0.00 | 0.00 | 0.00 | 69 | 1059.4 |
| 20260830154411 | 84 | 191 | 1.0 | 7.0 | 0.00 | 0.00 | 0.00 | 71 | 1059.3 |
| 20260830153907 | 86 | 191 | 6.0 | 10.0 | 0.00 | 0.00 | 0.00 | 69 | 1059.4 |
| 20260830153402 | 86 | 156 | 1.0 | 7.0 | 0.00 | 0.00 | 0.00 | 67 | 1059.2 |
| 20260830152900 | 86 | 149 | 4.0 | 11.0 | 0.00 | 0.00 | 0.00 | 69 | 1059.4 |
| 20260830152355 | 85 | 171 | 2.0 | 6.0 | 0.00 | 0.00 | 0.00 | 70 | 1059.4 |
| 20260830151850 | 85 | 184 | 4.0 | 10.0 | 0.00 | 0.00 | 0.00 | 72 | 1059.3 |
| 20260830151349 | 83 | 70 | 1.0 | 4.0 | 0.00 | 0.00 | 0.00 | 74 | 1059.4 |
| 20260830150844 | 83 | 225 | 5.0 | 9.0 | 0.00 | 0.00 | 0.00 | 75 | 1059.2 |
| 20260830150343 | 83 | 171 | 2.0 | 10.0 | 0.00 | 0.00 | 0.00 | 74 | 1059.2 |
| 20260830145838 | 83 | 209 | 4.0 | 8.0 | 0.00 | 0.00 | 0.00 | 75 | 1059.2 |
| 20260830145333 | 82 | 197 | 3.0 | 10.0 | 0.00 | 0.00 | 0.00 | 75 | 1059.4 |
| 20260830144829 | 82 | 145 | 3.0 | 6.0 | 0.00 | 0.00 | 0.00 | 78 | 1059.2 |
| 20260830144324 | 82 | 187 | 2.0 | 6.0 | 0.00 | 0.00 | 0.00 | 79 | 1059.5 |
| 20260830143820 | 81 | 214 | 1.0 | 4.0 | 0.00 | 0.00 | 0.00 | 80 | 1059.4 |
| 20260830143314 | 80 | 174 | 4.0 | 7.0 | 0.00 | 0.00 | 0.00 | 82 | 1059.6 |
| 20260830142803 | 80 | 233 | 6.0 | 8.0 | 0.00 | 0.00 | 0.00 | 83 | 1059.5 |
| 20260830142258 | 80 | 206 | 3.0 | 8.0 | 0.00 | 0.00 | 0.00 | 83 | 1059.3 |
| 20260830141753 | 80 | 176 | 5.0 | 8.0 | 0.00 | 0.00 | 0.00 | 84 | 1059.3 |
| 20260830141248 | 80 | 224 | 3.0 | 4.0 | 0.00 | 0.00 | 0.00 | 84 | 1059.4 |
| 20260830140743 | 80 | 199 | 3.0 | 7.0 | 0.00 | 0.00 | 0.00 | 84 | 1059.1 |
| 20260830140238 | 80 | 197 | 1.0 | 4.0 | 0.00 | 0.00 | 0.00 | 84 | 1059.1 |
| 20260830135732 | 79 | 239 | 3.0 | 8.0 | 0.00 | 0.00 | 0.00 | 86 | 1059.0 |
| 20260830135228 | 79 | 186 | 3.0 | 4.0 | 0.00 | 0.00 | 0.00 | 86 | 1059.3 |
| 20260830134723 | 79 | 156 | 3.0 | 4.0 | 0.00 | 0.00 | 0.00 | 87 | 1059.1 |
| 20260830134219 | 78 | 236 | 2.0 | 4.0 | 0.00 | 0.00 | 0.00 | 88 | 1059.0 |
| 20260830133714 | 78 | 174 | 2.0 | 4.0 | 0.00 | 0.00 | 0.00 | 88 | 1059.0 |
| 20260830133210 | 78 | 216 | 2.0 | 6.0 | 0.00 | 0.00 | 0.00 | 89 | 1058.8 |
| 20260830132705 | 77 | 189 | 1.0 | 4.0 | 0.00 | 0.00 | 0.00 | 89 | 1058.8 |
| 20260830132201 | 77 | 243 | 2.0 | 3.0 | 0.00 | 0.00 | 0.00 | 90 | 1058.6 |
| 20260830131659 | 77 | 236 | 2.0 | 2.0 | 0.00 | 0.00 | 0.00 | 90 | 1058.7 |
| 20260830131154 | 76 | 214 | 3.0 | 6.0 | 0.00 | 0.00 | 0.00 | 91 | 1058.7 |
| 20260830130649 | 76 | 152 | 2.0 | 4.0 | 0.00 | 0.00 | 0.00 | 91 | 1059.0 |
| 20260830130143 | 76 | 138 | 2.0 | 3.0 | 0.00 | 0.00 | 0.00 | 91 | 1058.9 |
| 20260830125643 | 75 | 136 | 1.0 | 1.0 | 0.00 | 0.00 | 0.00 | 93 | 1058.8 |
| 20260830125138 | 75 | 137 | 0.0 | 1.0 | 0.00 | 0.00 | 0.00 | 93 | 1058.6 |
| 20260830124636 | 74 | 137 | 1.0 | 2.0 | 0.00 | 0.00 | 0.00 | 94 | 1058.7 |
| 20260830124131 | 74 | 175 | 0.0 | 3.0 | 0.00 | 0.00 | 0.00 | 95 | 1058.6 |
| 20260830123629 | 73 | 156 | 0.0 | 2.0 | 0.00 | 0.00 | 0.00 | 95 | 1058.5 |
| 20260830123124 | 73 | 168 | 0.0 | 0.0 | 0.00 | 0.00 | 0.00 | 96 | 1058.4 |
| 20260830122621 | 73 | 155 | 1.0 | 2.0 | 0.00 | 0.00 | 0.00 | 96 | 1058.3 |
| 20260830122116 | 73 | 244 | 0.0 | 0.0 | 0.00 | 0.00 | 0.00 | 96 | 1058.4 |
| 20260830121612 | 73 | 243 | 1.0 | 3.0 | 0.00 | 0.00 | 0.00 | 96 | 1058.3 |
| 20260830121111 | 73 | 219 | 1.0 | 1.0 | 0.00 | 0.00 | 0.00 | 96 | 1058.1 |
| 20260830120606 | 73 | 195 | 0.0 | 1.0 | 0.00 | 0.00 | 0.00 | 96 | 1058.3 |
| 20260830115559 | 73 | 175 | 0.0 | 2.0 | 0.00 | 0.00 | 0.00 | 95 | 1058.3 |
| 20260830115054 | 73 | 235 | 0.0 | 0.0 | 0.00 | 0.00 | 0.00 | 94 | 1058.3 |
| 20260830114550 | 73 | 244 | 3.0 | 4.0 | 0.00 | 0.00 | 0.00 | 95 | 1058.1 |
| 20260830114050 | 73 | 227 | 1.0 | 2.0 | 0.00 | 0.00 | 0.00 | 94 | 1058.2 |
| 20260830113545 | 74 | 228 | 2.0 | 4.0 | 0.00 | 0.00 | 0.00 | 94 | 1058.1 |
| 20260830113040 | 73 | 171 | 0.0 | 2.0 | 0.00 | 0.00 | 0.00 | 94 | 1058.0 |
| 20260830112536 | 74 | 185 | 1.0 | 3.0 | 0.00 | 0.00 | 0.00 | 94 | 1057.9 |
| 20260830112033 | 74 | 223 | 1.0 | 2.0 | 0.00 | 0.00 | 0.00 | 94 | 1058.0 |
| 20260830111528 | 74 | 207 | 1.0 | 4.0 | 0.00 | 0.00 | 0.00 | 93 | 1058.0 |
| 20260830111024 | 74 | 232 | 2.0 | 6.0 | 0.00 | 0.00 | 0.00 | 93 | 1057.9 |
| 20260830110523 | 74 | 328 | 1.0 | 4.0 | 0.00 | 0.00 | 0.00 | 93 | 1058.0 |
| 20260830110019 | 74 | 235 | 3.0 | 4.0 | 0.00 | 0.00 | 0.00 | 93 | 1057.9 |
| 20260830105514 | 74 | 213 | 0.0 | 4.0 | 0.00 | 0.00 | 0.00 | 92 | 1057.9 |
| 20260830105010 | 74 | 210 | 3.0 | 6.0 | 0.00 | 0.00 | 0.00 | 92 | 1057.8 |
| 20260830104507 | 74 | 234 | 3.0 | 4.0 | 0.00 | 0.00 | 0.00 | 92 | 1058.0 |
| 20260830104002 | 74 | 214 | 1.0 | 3.0 | 0.00 | 0.00 | 0.00 | 92 | 1057.8 |
| 20260830103457 | 74 | 227 | 1.0 | 3.0 | 0.00 | 0.00 | 0.00 | 92 | 1057.5 |
| 20260830102955 | 74 | 174 | 1.0 | 3.0 | 0.00 | 0.00 | 0.00 | 91 | 1057.8 |
| 20260830102455 | 74 | 244 | 1.0 | 3.0 | 0.00 | 0.00 | 0.00 | 91 | 1057.6 |
| 20260830101952 | 74 | 246 | 2.0 | 2.0 | 0.00 | 0.00 | 0.00 | 91 | 1057.9 |
| 20260830101447 | 74 | 198 | 2.0 | 3.0 | 0.00 | 0.00 | 0.00 | 91 | 1057.6 |
| 20260830100946 | 75 | 198 | 1.0 | 3.0 | 0.00 | 0.00 | 0.00 | 90 | 1057.8 |
| 20260830100446 | 75 | 238 | 0.0 | 4.0 | 0.00 | 0.00 | 0.00 | 90 | 1057.7 |
| 20260830095944 | 75 | 154 | 2.0 | 2.0 | 0.00 | 0.00 | 0.00 | 90 | 1057.8 |
| 20260830095441 | 75 | 172 | 2.0 | 3.0 | 0.00 | 0.00 | 0.00 | 89 | 1057.9 |
| 20260830094936 | 75 | 212 | 0.0 | 2.0 | 0.00 | 0.00 | 0.00 | 89 | 1057.7 |
| 20260830094432 | 75 | 166 | 1.0 | 2.0 | 0.00 | 0.00 | 0.00 | 88 | 1057.9 |
| 20260830093928 | 75 | 236 | 1.0 | 4.0 | 0.00 | 0.00 | 0.00 | 88 | 1057.7 |
| 20260830093423 | 75 | 188 | 2.0 | 3.0 | 0.00 | 0.00 | 0.00 | 88 | 1057.7 |
| 20260830092919 | 75 | 163 | 0.0 | 2.0 | 0.00 | 0.00 | 0.00 | 87 | 1057.8 |
| 20260830092414 | 75 | 245 | 0.0 | 2.0 | 0.00 | 0.00 | 0.00 | 86 | 1057.7 |
| 20260830091911 | 75 | 159 | 0.0 | 3.0 | 0.00 | 0.00 | 0.00 | 86 | 1057.7 |
| 20260830091405 | 75 | 209 | 0.0 | 2.0 | 0.00 | 0.00 | 0.00 | 85 | 1058.0 |
| 20260830090903 | 75 | 158 | 1.0 | 2.0 | 0.00 | 0.00 | 0.00 | 86 | 1057.8 |
| 20260830090359 | 76 | 132 | 0.0 | 2.0 | 0.00 | 0.00 | 0.00 | 85 | 1057.8 |
| 20260830085854 | 76 | 175 | 2.0 | 3.0 | 0.00 | 0.00 | 0.00 | 85 | 1057.9 |
| 20260830085349 | 76 | 161 | 1.0 | 2.0 | 0.00 | 0.00 | 0.00 | 85 | 1057.8 |
| 20260830084845 | 76 | 154 | 1.0 | 4.0 | 0.00 | 0.00 | 0.00 | 84 | 1057.8 |
| 20260830084339 | 76 | 129 | 0.0 | 2.0 | 0.00 | 0.00 | 0.00 | 84 | 1058.0 |
| 20260830083834 | 76 | 98 | 0.0 | 3.0 | 0.00 | 0.00 | 0.00 | 83 | 1057.7 |
| 20260830083331 | 76 | 178 | 4.0 | 4.0 | 0.00 | 0.00 | 0.00 | 83 | 1058.0 |
| 20260830082830 | 76 | 194 | 2.0 | 4.0 | 0.00 | 0.00 | 0.00 | 83 | 1058.1 |
| 20260830082325 | 77 | 202 | 2.0 | 7.0 | 0.00 | 0.00 | 0.00 | 82 | 1057.9 |
| 20260830081821 | 77 | 156 | 3.0 | 4.0 | 0.00 | 0.00 | 0.00 | 82 | 1058.0 |
| 20260830081315 | 77 | 158 | 4.0 | 7.0 | 0.00 | 0.00 | 0.00 | 82 | 1058.0 |
| 20260830080814 | 77 | 188 | 2.0 | 6.0 | 0.00 | 0.00 | 0.00 | 82 | 1057.8 |
| 20260830080306 | 77 | 152 | 2.0 | 4.0 | 0.00 | 0.00 | 0.00 | 82 | 1058.0 |
| 20260830075804 | 77 | 165 | 2.0 | 4.0 | 0.00 | 0.00 | 0.00 | 81 | 1058.2 |
| 20260830075255 | 77 | 205 | 3.0 | 3.0 | 0.00 | 0.00 | 0.00 | 81 | 1058.0 |
| 20260830074749 | 77 | 142 | 3.0 | 4.0 | 0.00 | 0.00 | 0.00 | 81 | 1058.4 |
| 20260830074245 | 77 | 185 | 2.0 | 6.0 | 0.00 | 0.00 | 0.00 | 80 | 1058.1 |
| 20260830073741 | 77 | 138 | 3.0 | 3.0 | 0.00 | 0.00 | 0.00 | 80 | 1058.2 |
| 20260830073237 | 78 | 147 | 0.0 | 2.0 | 0.00 | 0.00 | 0.00 | 79 | 1058.2 |
| 20260830072736 | 78 | 161 | 2.0 | 6.0 | 0.00 | 0.00 | 0.00 | 79 | 1058.2 |
| 20260830072232 | 78 | 178 | 4.0 | 4.0 | 0.00 | 0.00 | 0.00 | 78 | 1058.2 |
| 20260830071727 | 78 | 159 | 1.0 | 4.0 | 0.00 | 0.00 | 0.00 | 78 | 1058.1 |
| 20260830071226 | 78 | 185 | 2.0 | 6.0 | 0.00 | 0.00 | 0.00 | 77 | 1058.1 |
| 20260830070720 | 78 | 226 | 1.0 | 3.0 | 0.00 | 0.00 | 0.00 | 77 | 1058.2 |
| 20260830070215 | 78 | 163 | 1.0 | 3.0 | 0.00 | 0.00 | 0.00 | 77 | 1058.2 |
| 20260830065713 | 78 | 160 | 3.0 | 4.0 | 0.00 | 0.00 | 0.00 | 77 | 1058.2 |
| 20260830065213 | 79 | 232 | 1.0 | 3.0 | 0.00 | 0.00 | 0.00 | 77 | 1058.3 |
| 20260830064712 | 79 | 169 | 2.0 | 4.0 | 0.00 | 0.00 | 0.00 | 77 | 1058.4 |
| 20260830064208 | 79 | 183 | 2.0 | 6.0 | 0.00 | 0.00 | 0.00 | 76 | 1058.3 |
| 20260830063702 | 79 | 182 | 2.0 | 4.0 | 0.00 | 0.00 | 0.00 | 76 | 1058.2 |
| 20260830063201 | 79 | 216 | 2.0 | 3.0 | 0.00 | 0.00 | 0.00 | 76 | 1058.5 |
| 20260830062656 | 79 | 187 | 3.0 | 3.0 | 0.00 | 0.00 | 0.00 | 76 | 1058.4 |
| 20260830062150 | 79 | 136 | 2.0 | 3.0 | 0.00 | 0.00 | 0.00 | 76 | 1058.2 |
| 20260830061644 | 80 | 172 | 1.0 | 3.0 | 0.00 | 0.00 | 0.00 | 77 | 1058.3 |
| 20260830061141 | 80 | 158 | 2.0 | 6.0 | 0.00 | 0.00 | 0.00 | 77 | 1058.2 |
| 20260830060638 | 80 | 271 | 4.0 | 6.0 | 0.00 | 0.00 | 0.00 | 77 | 1058.3 |
| 20260830060133 | 80 | 186 | 3.0 | 7.0 | 0.00 | 0.00 | 0.00 | 77 | 1058.2 |
| 20260830055628 | 80 | 206 | 3.0 | 3.0 | 0.00 | 0.00 | 0.00 | 77 | 1058.2 |
| 20260830055125 | 80 | 175 | 2.0 | 6.0 | 0.00 | 0.00 | 0.00 | 77 | 1058.1 |
| 20260830054619 | 80 | 167 | 1.0 | 3.0 | 0.00 | 0.00 | 0.00 | 77 | 1058.1 |
| 20260830054114 | 80 | 226 | 4.0 | 6.0 | 0.00 | 0.00 | 0.00 | 77 | 1058.1 |
| 20260830053610 | 80 | 216 | 2.0 | 3.0 | 0.00 | 0.00 | 0.00 | 76 | 1058.1 |
| 20260830053109 | 81 | 129 | 3.0 | 4.0 | 0.00 | 0.00 | 0.00 | 76 | 1058.0 |
| 20260830052605 | 81 | 152 | 3.0 | 3.0 | 0.00 | 0.00 | 0.00 | 76 | 1058.2 |
| 20260830052101 | 81 | 153 | 1.0 | 8.0 | 0.00 | 0.00 | 0.00 | 75 | 1058.2 |
| 20260830051555 | 81 | 195 | 4.0 | 6.0 | 0.00 | 0.00 | 0.00 | 74 | 1058.2 |
| 20260830051051 | 82 | 159 | 3.0 | 7.0 | 0.00 | 0.00 | 0.00 | 74 | 1058.1 |
| 20260830050549 | 82 | 211 | 4.0 | 6.0 | 0.00 | 0.00 | 0.00 | 73 | 1058.1 |
| 20260830050044 | 82 | 175 | 4.0 | 6.0 | 0.00 | 0.00 | 0.00 | 73 | 1058.3 |
| 20260830045543 | 82 | 192 | 4.0 | 7.0 | 0.00 | 0.00 | 0.00 | 72 | 1058.2 |
| 20260830045038 | 82 | 177 | 2.0 | 4.0 | 0.00 | 0.00 | 0.00 | 72 | 1058.1 |
| 20260830044532 | 82 | 145 | 3.0 | 8.0 | 0.00 | 0.00 | 0.00 | 72 | 1058.2 |
| 20260830044027 | 83 | 153 | 5.0 | 7.0 | 0.00 | 0.00 | 0.00 | 71 | 1058.4 |
| 20260830043523 | 83 | 118 | 3.0 | 7.0 | 0.00 | 0.00 | 0.00 | 71 | 1058.4 |
| 20260830043021 | 83 | 167 | 2.0 | 9.0 | 0.00 | 0.00 | 0.00 | 70 | 1058.2 |
| 20260830042520 | 83 | 190 | 4.0 | 7.0 | 0.00 | 0.00 | 0.00 | 70 | 1058.2 |
| 20260830042015 | 84 | 136 | 3.0 | 7.0 | 0.00 | 0.00 | 0.00 | 69 | 1058.2 |
| 20260830041514 | 84 | 134 | 5.0 | 10.0 | 0.00 | 0.00 | 0.00 | 69 | 1058.3 |
| 20260830041008 | 84 | 141 | 2.0 | 8.0 | 0.00 | 0.00 | 0.00 | 68 | 1058.3 |
| 20260830040504 | 84 | 198 | 6.0 | 9.0 | 0.00 | 0.00 | 0.00 | 68 | 1058.4 |
| 20260830040003 | 85 | 174 | 3.0 | 8.0 | 0.00 | 0.00 | 0.00 | 67 | 1058.1 |
| 20260830035456 | 85 | 167 | 3.0 | 11.0 | 0.00 | 0.00 | 0.00 | 67 | 1058.2 |
| 20260830034952 | 85 | 189 | 4.0 | 15.0 | 0.00 | 0.00 | 0.00 | 66 | 1058.2 |
| 20260830034448 | 85 | 183 | 4.0 | 10.0 | 0.00 | 0.00 | 0.00 | 66 | 1058.1 |
| 20260830033947 | 85 | 202 | 3.0 | 11.0 | 0.00 | 0.00 | 0.00 | 65 | 1058.2 |
| 20260830033443 | 86 | 126 | 4.0 | 4.0 | 0.00 | 0.00 | 0.00 | 64 | 1058.1 |
| 20260830032938 | 86 | 162 | 6.0 | 8.0 | 0.00 | 0.00 | 0.00 | 63 | 1058.1 |
| 20260830032436 | 86 | 127 | 4.0 | 7.0 | 0.00 | 0.00 | 0.00 | 62 | 1058.0 |
| 20260830031932 | 86 | 183 | 4.0 | 7.0 | 0.00 | 0.00 | 0.00 | 62 | 1057.9 |
| 20260830031427 | 86 | 98 | 3.0 | 6.0 | 0.00 | 0.00 | 0.00 | 61 | 1057.7 |
| 20260830030922 | 86 | 143 | 3.0 | 6.0 | 0.00 | 0.00 | 0.00 | 60 | 1057.9 |
| 20260830030419 | 86 | 146 | 2.0 | 4.0 | 0.00 | 0.00 | 0.00 | 59 | 1057.7 |
| 20260830025913 | 86 | 145 | 2.0 | 7.0 | 0.00 | 0.00 | 0.00 | 59 | 1057.6 |
| 20260830025412 | 86 | 126 | 3.0 | 3.0 | 0.00 | 0.00 | 0.00 | 59 | 1057.6 |
| 20260830024911 | 85 | 164 | 3.0 | 4.0 | 0.00 | 0.00 | 0.00 | 60 | 1057.5 |
| 20260830024407 | 85 | 144 | 2.0 | 3.0 | 0.00 | 0.00 | 0.00 | 62 | 1057.5 |
| 20260830023904 | 86 | 127 | 2.0 | 4.0 | 0.00 | 0.00 | 0.00 | 60 | 1057.5 |
| 20260830023403 | 86 | 122 | 2.0 | 3.0 | 0.00 | 0.00 | 0.00 | 60 | 1057.3 |
| 20260830022902 | 86 | 116 | 1.0 | 2.0 | 0.00 | 0.00 | 0.00 | 59 | 1057.0 |
| 20260830022358 | 86 | 158 | 0.0 | 0.0 | 0.00 | 0.00 | 0.00 | 59 | 1056.9 |
| 20260830021857 | 86 | 157 | 0.0 | 0.0 | 0.00 | 0.00 | 0.00 | 58 | 1056.8 |
| 20260830021352 | 86 | 158 | 0.0 | 0.0 | 0.00 | 0.00 | 0.00 | 59 | 1056.8 |
| 20260830020847 | 86 | 158 | 0.0 | 0.0 | 0.00 | 0.00 | 0.00 | 58 | 1056.5 |
| 20260830020341 | 86 | 158 | 0.0 | 1.0 | 0.00 | 0.00 | 0.00 | 57 | 1056.5 |
| 20260830015837 | 87 | 158 | 0.0 | 0.0 | 0.00 | 0.00 | 0.00 | 57 | 1056.4 |
| 20260830015331 | 87 | 158 | 0.0 | 0.0 | 0.00 | 0.00 | 0.00 | 57 | 1056.4 |
| 20260830014826 | 87 | 158 | 0.0 | 0.0 | 0.00 | 0.00 | 0.00 | 57 | 1056.4 |